Regional Weather Roundup
Issued by NWS

Home | Current Version | Previous Version | Text Only | Print | Product List | Glossary Off
Versions: 1 2 3 4 5 6 7 8 9 10 11 12 13 14 15 16 17 18 19 20 21 22 23 24 25 26 27 28 29 30 31 32 33 34 35 36 37 38 39 40 41 42 43 44 45 46 47 48 49 50

000
ASUS44 KMEG 172310
RWRTN
TENNESSEE HOURLY STATE WEATHER ROUNDUP
NATIONAL WEATHER SERVICE MEMPHIS TN
600 PM CDT THU AUG 17 2017

TNZ002-004-019-021-049-052-054-088>092-180000-
WEST TENNESSEE

CITY           SKY/WX    TMP DP  RH WIND       PRES   REMARKS
MEMPHIS INTL   CLOUDY    80  76  87 SW7       29.93S
NWS MEMPHIS      N/A     78 N/A N/A MISG        N/A
JACKSON        CLOUDY    77  76  96 S8        29.92F
DYERSBURG      CLOUDY    83  76  79 SW7       29.92F HX  91
SOMERVILLE     PTSUNNY   77  75  94 S6        29.92S
COVINGTON      SUNNY     81  77  89 SW8       29.91F
UNION CITY     MOSUNNY   84  75  74 W7G16     29.89S HX  92
PARIS          PTSUNNY   81  77  89 SW8       29.90S
HUNTINGDON     MOSUNNY   82  75  78 SW9       29.90F
LEXINGTON      MOSUNNY   84  75  74 SW9       29.91F HX  92
SELMER         MOSUNNY   81  77  89 CALM      29.93S
SAVANNAH       MOSUNNY   86  75  70 S8        29.91F HX  95
$$

TNZ008-025-027-028-033-062-065-066-180000-
NORTH MIDDLE TENNESSEE

CITY           SKY/WX    TMP DP  RH WIND       PRES   REMARKS
NASHVILLE      PTSUNNY   86  73  65 SW8       29.94S HX  93
PORTLAND       SUNNY     86  73  66 SW9G17    29.92S HX  93
CLARKSVILLE    LGT RAIN  82  74  76 SW7       29.91S
SMYRNA         MOSUNNY   86  73  65 SW10      29.94F HX  93
COOKEVILLE     SUNNY     86  72  62 SW9       29.97R HX  92
GALLATIN       SUNNY     86  73  66 VRB6G15   29.95R HX  93
CROSSVILLE     SUNNY     82  69  64 VRB3      30.04R
$$

TNZ061-075-076-078-094-096-097-180000-
SOUTH MIDDLE TENNESSEE

CITY           SKY/WX    TMP DP  RH WIND       PRES   REMARKS
TULLAHOMA      SUNNY     84  70  61 SW8       30.00S
WINCHESTER     MOSUNNY   88  72  58 W8        29.99S HX  94
MCMINNVILLE    SUNNY     88  73  62 SW8       29.99R HX  96
COLUMBIA       SUNNY     84  75  74 S9        29.93S HX  92
SHELBYVILLE    SUNNY     84  72  65 SW13      29.96F
$$

TNZ017-018-042-046-047-180000-
NORTHEAST TENNESSEE

CITY           SKY/WX    TMP DP  RH WIND       PRES   REMARKS
TRI CITIES     MOSUNNY   86  72  62 W7        30.00R HX  92
ELIZABETHTON   CLOUDY    86  73  66 W3        30.01R HX  93
$$

TNZ012-013-036-069-073-074-180000-
CENTRAL EAST TENNESSEE

CITY           SKY/WX    TMP DP  RH WIND       PRES   REMARKS
KNOXVILLE      CLOUDY    80  72  76 SW7       29.97S
OAK RIDGE      CLOUDY    87  73  62 S8        29.97  HX  94
DOWNTOWN KNOXV SUNNY     84  75  74 W7        29.96S HX  92
GATLINBURG     SUNNY     82  70  65 W5        29.97F
MORRISTOWN     SUNNY     81  72  74 W5        29.98F
JACKSBORO      MOSUNNY   86  73  66 S6        30.00R HX  93
$$

TNZ083-085-099-180000-
SOUTHEAST TENNESSEE

CITY           SKY/WX    TMP DP  RH WIND       PRES   REMARKS
CHATTANOOGA    MOSUNNY   90  68  48 SW12      29.98R HX  94
DAYTON         CLEAR     88  75  66 VRB7      29.96S HX  97
$$

SKY/WX REPORTED AS FAIR MEANS FEW OR NO CLOUDS BELOW
12 THOUSAND FEET.




USA.gov is the U.S. government's official web portal to all federal, state and local government web resources and services.